This is the latest recevied weather packets stored in our database for station/object K8BCO. If no packets are shown the sender has not sent any weather packets the latest 10 day(s).
| Time | Temp. | Humidity | Pressure | Rain* | Wind** | Luminosity | Snow |
|---|---|---|---|---|---|---|---|
| 1777731318 | 8.33° C | 39% | 1016.5 hPa | 0 mm | - | 535 W/m² | - |
| 1777730716 | 7.78° C | 40% | 1016.4 hPa | 0 mm | - | 510 W/m² | - |
| 1777730116 | 7.78° C | 41% | 1016.4 hPa | 0 mm | - | 478 W/m² | - |
| 1777729516 | 7.78° C | 39% | 1016.4 hPa | 0 mm | - | 445 W/m² | - |
| 1777728916 | 7.22° C | 41% | 1016.6 hPa | 0 mm | - | 416 W/m² | - |
| 1777728316 | 6.67° C | 42% | 1016.7 hPa | 0 mm | - | 386 W/m² | - |
| 1777727717 | 6.67° C | 42% | 1016.7 hPa | 0 mm | - | 358 W/m² | - |
| 1777727117 | 6.11° C | 44% | 1016.8 hPa | 0 mm | - | 326 W/m² | - |
| 1777726517 | 5.56° C | 49% | 1017 hPa | 0 mm | - | 302 W/m² | - |
| 1777725918 | 3.89° C | 57% | 1017 hPa | 0 mm | - | 273 W/m² | - |
| 1777725318 | 1.67° C | 65% | 1017.1 hPa | 0 mm | - | 207 W/m² | - |
| 1777724717 | 0° C | 82% | 1017.2 hPa | 0 mm | - | 168 W/m² | - |
| 1777724128 | -1.67° C | 89% | 1017.3 hPa | 0 mm | - | 63 W/m² | - |
| 1777723526 | -2.22° C | 91% | 1017.3 hPa | 0 mm | - | 74 W/m² | - |
| 1777722926 | -2.78° C | 92% | 1017.4 hPa | 0 mm | - | 46 W/m² | - |
| 1777722329 | -3.33° C | 93% | 1017.5 hPa | 0 mm | - | 42 W/m² | - |
| 1777721728 | -3.89° C | 94% | 1017.4 hPa | 0 mm | - | 43 W/m² | - |
| 1777721127 | -4.44° C | 94% | 1017.4 hPa | 0 mm | - | 32 W/m² | - |
| 1777720531 | -4.44° C | 94% | 1017.4 hPa | 0 mm | - | 26 W/m² | - |
| 1777719927 | -4.44° C | 93% | 1017.4 hPa | 0 mm | - | 20 W/m² | - |
| 1777719341 | -4.44° C | 93% | 1017.4 hPa | 0 mm | - | 13 W/m² | - |
| 1777718727 | -4.44° C | 93% | 1017.4 hPa | 0 mm | - | 7 W/m² | - |
| 1777718127 | -4.44° C | 92% | 1017.3 hPa | 0 mm | - | 3 W/m² | - |
| 1777717529 | -4.44° C | 92% | 1017.4 hPa | 0 mm | - | 1 W/m² | - |
| 1777716917 | -4.44° C | 92% | 1017.4 hPa | 0 mm | - | 0 W/m² | - |
* Rain latest hour (hover to see other rain measurements)
** Current wind speed in m/s (hover to see current wind gust speed)